Regional Weather Roundup
Issued by NWS Little Rock, AR

Home | Current Version | Previous Version | Graphics & Text | Print | Product List | Glossary On
Versions: 1 2 3 4 5 6 7 8 9 10 11 12 13 14 15 16 17 18 19 20 21 22 23 24 25 26 27 28 29 30 31 32 33 34 35 36 37 38 39 40 41 42 43 44 45 46 47 48 49 50
000
ASUS44 KLZK 261305
RWRLZK

WEATHER ROUNDUP FOR ARKANSAS
NATIONAL WEATHER SERVICE LITTLE ROCK AR
700 AM CST WED NOV 26 2014

NOTE: "FAIR" INDICATES FEW OR NO CLOUDS BELOW 12,000 FEET WITH NO
SIGNIFICANT WEATHER AND/OR OBSTRUCTIONS TO VISIBILITY.

ARZ001-003-010-029-261400-
NORTHWEST ARKANSAS

CITY           SKY/WX    TMP DP  RH WIND       PRES   REMARKS
FAYETTEVILLE   CLOUDY    44  27  51 SW5       29.99R
FORT SMITH     CLOUDY    35  28  75 N5        30.04R WCI  31
HARRISON       CLOUDY    33  25  72 SE9       29.96F WCI  25
BENTONVILLE    CLOUDY    37  25  60 SW6       30.00R
ROGERS         CLOUDY    41  26  55 SW9       29.98R
SILOAM SPGS    CLOUDY    41  25  52 SW7       30.02R
HIGHFILL       CLOUDY    41  28  60 W13       29.99R
SPRINGDALE     CLOUDY    43  27  52 W6        30.00R
$$

ARZ004-005-016-261400-
NORTH CENTRAL ARKANSAS

CITY           SKY/WX    TMP DP  RH WIND       PRES   REMARKS
BATESVILLE     PTCLDY    34  27  75 SE6       30.07S WCI  29
FLIPPIN        CLOUDY    27  21  80 CALM      29.99F
MTN HOME       MOCLDY    33  23  66 SE7       29.98F WCI  27
$$

ARZ040-041-261400-
WEST CENTRAL ARKANSAS

CITY           SKY/WX    TMP DP  RH WIND       PRES   REMARKS
MENA             N/A     30  28  93 CALM        N/A
MOUNT IDA      CLEAR     28  26  92 CALM      30.02R
$$

ARZ009-017-025-026-028-261400-
NORTHEAST ARKANSAS

CITY           SKY/WX    TMP DP  RH WIND       PRES   REMARKS
CORNING        FAIR      32  28  86 SE8       30.10S WCI  25
JONESBORO      CLEAR     30  29  96 CALM      30.11S
NEWPORT        CLEAR     31  28  88 SE8       30.10F FOG     WCI  24
WALNUT RIDGE   CLEAR     30  23  74 SE7       30.09R WCI  23
BLYTHEVILLE    CLEAR     42  29  59 SE8       30.13F
$$

ARZ022-023-033-042-044-261400-
CENTRAL ARKANSAS

CITY           SKY/WX    TMP DP  RH WIND       PRES   REMARKS
LITTLE ROCK    MOCLDY    34  29  82 CALM      30.09S
N LITTLE ROCK    N/A     36  32  84 S6        30.09S
JACKSONVILLE   PTCLDY    27  25  91 NE1       30.07F
SEARCY         PTCLDY    27  26  96 N3        30.10F
HOT SPRINGS    CLEAR     30  26  85 NE5       30.08S WCI  25
RUSSELLVILLE   PTCLDY    29  27  92 CALM      30.04S
CLINTON        FAIR      27  25  93 CALM      30.08F
$$

ARZ036-261400-
EAST ARKANSAS

CITY           SKY/WX    TMP DP  RH WIND       PRES   REMARKS
WEST MEMPHIS   CLEAR     30  28  92 S6        30.13S WCI  24
$$

ARZ050-053-066-070-073-261400-
SOUTHWEST ARKANSAS

CITY           SKY/WX    TMP DP  RH WIND       PRES   REMARKS
ARKADELPHIA    FAIR      30  30 100 CALM      30.11R
CAMDEN         CLEAR     32  28  86 MISG      30.10F
TEXARKANA      CLEAR     41  32  70 S9        30.05F
EL DORADO      CLEAR     32  30  92 CALM      30.10F
DE QUEEN       CLEAR     30  28  92 E3        30.05R
$$

ARZ056-057-069-261400-
SOUTHEAST ARKANSAS

CITY           SKY/WX    TMP DP  RH WIND       PRES   REMARKS
PINE BLUFF     CLEAR     33  30  88 SE5       30.11S WCI  29
STUTTGART      CLEAR     36  30  80 SE7       30.11R
MONTICELLO     CLEAR     37  30  75 SE3       30.12S

$$





USA.gov is the U.S. government's official web portal to all federal, state and local government web resources and services.